Location: Briis
(48.6240°N, 2.1211°E)
Time: 11:24:50
(UTC+00:00)

Cosmos 1812 - Pass Details

Date: 25 September 2020
Orbit: 516 x 521 km, 82.5° (Epoch: 30 October)

Event Time Altitude Azimuth Distance (km) Brightness Sun altitude
Exits shadow 03:08:34 53° 35° (NE) 651 3.4 -25.2°
Drops below altitude 10° 03:11:39 10° 14° (NNE) 1,769 5.9 -24.8°
Sets 03:13:48 0° 12° (NNE) 2,663 6.9 -24.5°
